Change the Weather History Date:

Monday, February 11, 2013

  Actual Average (KLWV) Record (KLWV)
Temperature  
Mean Temperature 44 °F 34 °F  
Max Temperature 53 °F 43 °F 71 °F (1999)
Min Temperature 35 °F 26 °F -1 °F (2014)
Degree Days  
Heating Degree Days 21 31  
Month to date heating degree days 350  
Since 1 July heating degree days 3201  
Cooling Degree Days 0 0  
Month to date cooling degree days 0  
Year to date cooling degree days 0  
Moisture  
Dew Point 33 °F    
Average Humidity 67    
Maximum Humidity 88    
Minimum Humidity 50    
Precipitation  
Precipitation 0.00 in 0.09 in 2.12 in (2009)
Month to date precipitation 0.85  
Year to date precipitation 3.23  
Sea Level Pressure  
Sea Level Pressure 29.99 in    
Wind  
Wind Speed 17 mph (WSW)    
Max Wind Speed 28 mph    
Max Gust Speed 37 mph    
Visibility 10 miles    
Events      
T = Trace of Precipitation, MM = Missing Value Source: NWS Daily Summary

Daily Weather History Graph

Daily Weather History Graph

Search for Another Location

Airport or City:

Trip Planner

Search our weather history database for the weather conditions in past years. The results will help you decide how hot, cold, wet, or windy it might be!

Date:

Astronomy

Feb. 11, 2013 Rise Set
Actual Time 6:46 AM CST 5:24 PM CST
Civil Twilight 6:18 AM CST 5:52 PM CST
Nautical Twilight 5:47 AM CST 6:23 PM CST
Astronomical Twilight 5:16 AM CST 6:54 PM CST
Moon 7:12 AM CST (2/11) 7:19 PM CST (2/11)
Length of Visible Light 11h 33m
Length of Day
10h 38m
Waxing Crescent, 3% of the Moon is Illuminated
Feb 11
Waxing Crescent
Feb 17
First Quarter
Feb 25
Full
Mar 4
Last Quarter
Mar 11
New

Hourly Weather History & Observations

Time (CST) Temp. Windchill Dew Point Humidity Pressure Visibility Wind Dir Wind Speed Gust Speed Precip Events Conditions
12:15 AM 53.6 °F - 50.0 °F 88% 29.76 in 10.0 mi SW 16.1 mph - N/A   Clear
12:35 AM 53.6 °F - 48.2 °F 82% 29.76 in 10.0 mi SW 16.1 mph - N/A   Clear
12:55 AM 53.6 °F - 44.6 °F 72% 29.76 in 10.0 mi SW 17.3 mph 24.2 mph N/A   Clear
1:15 AM 53.6 °F - 41.0 °F 62% 29.77 in 10.0 mi SW 17.3 mph 26.5 mph N/A   Clear
1:35 AM 53.6 °F - 41.0 °F 62% 29.78 in 10.0 mi WSW 18.4 mph - N/A   Clear
1:55 AM 51.8 °F - 37.4 °F 58% 29.79 in 10.0 mi WSW 17.3 mph 26.5 mph N/A   Clear
2:15 AM 51.8 °F - 37.4 °F 58% 29.80 in 10.0 mi WSW 18.4 mph 27.6 mph N/A   Clear
2:35 AM 51.8 °F - 33.8 °F 50% 29.80 in 10.0 mi WSW 24.2 mph 31.1 mph N/A   Clear
2:55 AM 50.0 °F - 33.8 °F 54% 29.81 in 10.0 mi WSW 20.7 mph 27.6 mph N/A   Clear
3:15 AM 48.2 °F - 33.8 °F 58% 29.81 in 10.0 mi WSW 26.5 mph - N/A   Clear
3:35 AM 46.4 °F 37.9 °F 33.8 °F 62% 29.83 in 10.0 mi West 25.3 mph 36.8 mph N/A   Clear
3:55 AM 44.6 °F 35.7 °F 32.0 °F 61% 29.85 in 10.0 mi WSW 24.2 mph 35.7 mph N/A   Clear
4:15 AM 44.6 °F 35.3 °F 32.0 °F 61% 29.86 in 10.0 mi West 26.5 mph 36.8 mph N/A   Clear
4:35 AM 42.8 °F 33.1 °F 32.0 °F 66% 29.87 in 10.0 mi West 25.3 mph 31.1 mph N/A   Clear
4:55 AM 42.8 °F 33.8 °F 32.0 °F 66% 29.88 in 10.0 mi WSW 21.9 mph 27.6 mph N/A   Clear
5:15 AM 41.0 °F 31.9 °F 32.0 °F 70% 29.89 in 10.0 mi West 19.6 mph 25.3 mph N/A   Clear
5:35 AM 41.0 °F 32.5 °F 32.0 °F 70% 29.90 in 10.0 mi WSW 17.3 mph 24.2 mph N/A   Clear
5:55 AM 41.0 °F 32.2 °F 32.0 °F 70% 29.92 in 10.0 mi West 18.4 mph 31.1 mph N/A   Clear
6:15 AM 41.0 °F 32.2 °F 32.0 °F 70% 29.93 in 10.0 mi West 18.4 mph 23.0 mph N/A   Scattered Clouds
6:35 AM 41.0 °F 31.9 °F 32.0 °F 70% 29.94 in 10.0 mi West 19.6 mph 27.6 mph N/A   Scattered Clouds
6:55 AM 39.2 °F 28.7 °F 30.2 °F 70% 29.95 in 10.0 mi West 23.0 mph 28.8 mph N/A   Scattered Clouds
7:15 AM 39.2 °F 30.5 °F 30.2 °F 70% 29.96 in 10.0 mi West 16.1 mph - N/A   Clear
7:35 AM 39.2 °F 31.2 °F 32.0 °F 75% 29.97 in 10.0 mi WSW 13.8 mph - N/A   Clear
7:55 AM 41.0 °F 32.5 °F 32.0 °F 70% 29.98 in 10.0 mi WSW 17.3 mph - N/A   Clear
8:15 AM 41.0 °F 32.8 °F 32.0 °F 70% 29.98 in 10.0 mi WSW 16.1 mph - N/A   Clear
8:35 AM 41.0 °F 32.5 °F 32.0 °F 70% 29.99 in 10.0 mi WSW 17.3 mph 26.5 mph N/A   Clear
8:55 AM 41.0 °F 31.1 °F 30.2 °F 65% 29.99 in 10.0 mi WSW 23.0 mph 29.9 mph N/A   Scattered Clouds
9:15 AM 42.8 °F 33.5 °F 32.0 °F 66% 30.00 in 10.0 mi WSW 23.0 mph 28.8 mph N/A   Clear
9:35 AM 42.8 °F 33.5 °F 32.0 °F 66% 30.01 in 10.0 mi West 23.0 mph 31.1 mph N/A   Scattered Clouds
9:55 AM 42.8 °F 33.5 °F 32.0 °F 66% 30.02 in 10.0 mi West 23.0 mph 32.2 mph N/A   Scattered Clouds
10:15 AM 44.6 °F 35.1 °F 32.0 °F 61% 30.02 in 10.0 mi WSW 27.6 mph 32.2 mph N/A   Scattered Clouds
10:35 AM 44.6 °F 35.7 °F 32.0 °F 61% 30.03 in 10.0 mi West 24.2 mph 29.9 mph N/A   Scattered Clouds
10:55 AM 44.6 °F 35.7 °F 32.0 °F 61% 30.03 in 10.0 mi West 24.2 mph 27.6 mph N/A   Clear
11:15 AM 44.6 °F 36.4 °F 32.0 °F 61% 30.03 in 10.0 mi West 20.7 mph 27.6 mph N/A   Scattered Clouds
11:35 AM 44.6 °F 37.4 °F 32.0 °F 61% 30.03 in 10.0 mi WSW 16.1 mph 21.9 mph N/A   Scattered Clouds
11:55 AM 46.4 °F 38.5 °F 33.8 °F 62% 30.02 in 10.0 mi WSW 21.9 mph - N/A   Scattered Clouds
12:15 PM 46.4 °F 39.2 °F 33.8 °F 62% 30.02 in 10.0 mi WSW 18.4 mph 26.5 mph N/A   Mostly Cloudy
12:35 PM 46.4 °F 39.0 °F 33.8 °F 62% 30.02 in 10.0 mi WSW 19.6 mph 24.2 mph N/A   Scattered Clouds
12:55 PM 46.4 °F 38.3 °F 33.8 °F 62% 30.02 in 10.0 mi West 23.0 mph 26.5 mph N/A   Scattered Clouds
1:15 PM 48.2 °F - 33.8 °F 58% 30.02 in 10.0 mi WSW 20.7 mph - N/A   Clear
1:35 PM 48.2 °F - 33.8 °F 58% 30.02 in 10.0 mi WSW 23.0 mph 26.5 mph N/A   Scattered Clouds
1:55 PM 48.2 °F - 33.8 °F 58% 30.02 in 10.0 mi WSW 21.9 mph 28.8 mph N/A   Scattered Clouds
2:15 PM 50.0 °F - 32.0 °F 50% 30.03 in 10.0 mi West 26.5 mph 29.9 mph N/A   Clear
2:35 PM 50.0 °F - 32.0 °F 50% 30.03 in 10.0 mi West 23.0 mph - N/A   Clear
2:55 PM 50.0 °F - 32.0 °F 50% 30.03 in 10.0 mi West 25.3 mph 28.8 mph N/A   Clear
3:15 PM 50.0 °F - 32.0 °F 50% 30.04 in 10.0 mi West 19.6 mph 24.2 mph N/A   Clear
3:35 PM 50.0 °F - 32.0 °F 50% 30.04 in 10.0 mi West 23.0 mph 27.6 mph N/A   Scattered Clouds
3:55 PM 50.0 °F - 32.0 °F 50% 30.03 in 10.0 mi WSW 23.0 mph 29.9 mph N/A   Clear
4:55 PM 46.4 °F 40.4 °F 32.0 °F 57% 30.04 in 10.0 mi West 13.8 mph 20.7 mph N/A   Clear
5:15 PM 46.4 °F 42.4 °F 32.0 °F 57% 30.05 in 10.0 mi West 8.1 mph 11.5 mph N/A   Clear
5:35 PM 44.6 °F 40.2 °F 32.0 °F 61% 30.05 in 10.0 mi West 8.1 mph - N/A   Clear
5:55 PM 42.8 °F 39.3 °F 32.0 °F 66% 30.06 in 10.0 mi West 5.8 mph - N/A   Clear
6:15 PM 41.0 °F 37.1 °F 33.8 °F 76% 30.07 in 10.0 mi West 5.8 mph - N/A   Clear
6:35 PM 41.0 °F 39.0 °F 32.0 °F 70% 30.07 in 10.0 mi West 3.5 mph - N/A   Clear
6:55 PM 41.0 °F 38.0 °F 32.0 °F 70% 30.08 in 10.0 mi West 4.6 mph - N/A   Clear
7:15 PM 41.0 °F 37.1 °F 32.0 °F 70% 30.08 in 10.0 mi WSW 5.8 mph - N/A   Clear
7:35 PM 39.2 °F 34.2 °F 32.0 °F 75% 30.09 in 10.0 mi WSW 6.9 mph - N/A   Clear
7:55 PM 39.2 °F 35.0 °F 32.0 °F 75% 30.09 in 10.0 mi WSW 5.8 mph - N/A   Clear
8:15 PM 39.2 °F 35.9 °F 32.0 °F 75% 30.09 in 10.0 mi West 4.6 mph - N/A   Clear
8:35 PM 39.2 °F 37.0 °F 32.0 °F 75% 30.10 in 10.0 mi WNW 3.5 mph - N/A   Clear
8:55 PM 37.4 °F 34.9 °F 32.0 °F 81% 30.11 in 10.0 mi WNW 3.5 mph - N/A   Clear
9:15 PM 35.6 °F 32.8 °F 32.0 °F 87% 30.11 in 10.0 mi WNW 3.5 mph - N/A   Clear
9:35 PM 35.6 °F 32.8 °F 32.0 °F 87% 30.12 in 10.0 mi WSW 3.5 mph - N/A   Clear
9:55 PM 37.4 °F 32.1 °F 30.2 °F 75% 30.12 in 10.0 mi WSW 6.9 mph - N/A   Clear
10:15 PM 37.4 °F 31.4 °F 30.2 °F 75% 30.12 in 10.0 mi WSW 8.1 mph - N/A   Clear
10:35 PM 35.6 °F 29.9 °F 32.0 °F 87% 30.13 in 10.0 mi West 6.9 mph - N/A   Clear
10:55 PM 35.6 °F - 32.0 °F 87% 30.13 in 10.0 mi Calm Calm - N/A   Clear
11:15 PM 35.6 °F - 32.0 °F 87% 30.13 in 10.0 mi Calm Calm - N/A   Clear
11:35 PM 35.6 °F - 32.0 °F 87% 30.14 in 10.0 mi Calm Calm - N/A   Clear
11:55 PM 35.6 °F - 30.2 °F 81% 30.14 in 10.0 mi Calm Calm - N/A   Clear